Latest Weather Observations for St Kilda Harbour RMYS

IDV60801

Issued at 7:05 pm EDT Friday 24 October 2014 (issued every 30 minutes, with the page automatically refreshed every 10 minutes)

About weather observations | Map of weather stations | Latest weather observations for VIC | Other Formats
Station Details ID: 086220 Name: ST KILDA HARBOUR - RMYS Lat: -37.86 Lon: 144.96 Height: 6.4 m
Data from the previous 72 hours. | See also: Recent months for locations in Victoria
Date/Time
EDT
Temp
°C
App
Temp
°C
Dew
Point
Rel
Hum
%
Delta-T
°C
Wind Press
QNH
hPa
Press
MSL
hPa
Rain
since 9 am
mm
Dir
 
Spd
km/h
Gust
km/h
Spd
kts
Gust
kts
24/07:00pm - - - - - S 30 35 16 19 - - -
24/06:30pm - - - - - S 24 30 13 16 - - -
24/06:00pm - - - - - S 24 26 13 14 - - -
24/05:30pm - - - - - S 19 22 10 12 - - -
24/05:00pm - - - - - S 17 19 9 10 - - -
24/04:30pm - - - - - S 11 15 6 8 - - -
24/04:00pm - - - - - S 11 13 6 7 - - -
24/03:30pm - - - - - SSE 13 15 7 8 - - -
24/03:00pm - - - - - SSE 13 15 7 8 - - -
24/02:30pm - - - - - SSE 15 19 8 10 - - -
24/02:00pm - - - - - SSE 11 17 6 9 - - -
24/01:30pm - - - - - S 13 17 7 9 - - -
24/01:00pm - - - - - S 15 19 8 10 - - -
24/12:30pm - - - - - S 13 17 7 9 - - -
24/12:00pm - - - - - SSE 11 13 6 7 - - -
24/11:30am - - - - - S 17 19 9 10 - - -
24/11:00am - - - - - S 13 15 7 8 - - -
24/10:30am - - - - - SSW 9 11 5 6 - - -
24/10:00am - - - - - SW 11 13 6 7 - - -
24/09:30am - - - - - SW 7 9 4 5 - - -
24/09:00am - - - - - WSW 4 7 2 4 - - -
24/08:30am - - - - - N 7 9 4 5 - - -
24/08:00am - - - - - NNE 7 11 4 6 - - -
24/07:30am - - - - - NNE 6 9 3 5 - - -
24/07:00am - - - - - NE 6 9 3 5 - - -
24/06:30am - - - - - NNE 7 9 4 5 - - -
24/06:00am - - - - - NNW 9 11 5 6 - - -
24/05:30am - - - - - NW 7 11 4 6 - - -
24/05:00am - - - - - NW 11 15 6 8 - - -
24/04:30am - - - - - NNW 2 7 1 4 - - -
24/04:00am - - - - - NNW 6 7 3 4 - - -
24/03:30am - - - - - NNE 2 6 1 3 - - -
24/03:00am - - - - - N 7 9 4 5 - - -
24/02:30am - - - - - N 7 11 4 6 - - -
24/02:00am - - - - - NNW 11 15 6 8 - - -
24/01:30am - - - - - NNW 11 17 6 9 - - -
24/01:00am - - - - - NNW 11 13 6 7 - - -
24/12:30am - - - - - NNW 9 11 5 6 - - -
24/12:00am - - - - - N 6 9 3 5 - - -
 
Date/Time
EDT
Temp
°C
App
Temp
°C
Dew
Point
Rel
Hum
%
Delta-T
°C
Wind Press
QNH
hPa
Press
MSL
hPa
Rain
since 9 am
mm
Dir
 
Spd
km/h
Gust
km/h
Spd
kts
Gust
kts
23/11:30pm - - - - - E 6 7 3 4 - - -
23/11:00pm - - - - - E 6 9 3 5 - - -
23/10:30pm - - - - - E 7 11 4 6 - - -
23/10:00pm - - - - - E 7 11 4 6 - - -
23/09:30pm - - - - - E 9 20 5 11 - - -
23/09:00pm - - - - - ESE 17 24 9 13 - - -
23/08:30pm - - - - - ESE 19 28 10 15 - - -
23/08:00pm - - - - - ESE 22 32 12 17 - - -
23/07:30pm - - - - - ESE 24 32 13 17 - - -
23/07:00pm - - - - - ESE 24 33 13 18 - - -
23/06:30pm - - - - - SE 22 33 12 18 - - -
23/06:00pm - - - - - SE 26 35 14 19 - - -
23/05:30pm - - - - - SSE 22 28 12 15 - - -
23/05:00pm - - - - - SSE 22 30 12 16 - - -
23/04:30pm - - - - - S 24 30 13 16 - - -
23/04:00pm - - - - - SW 33 37 18 20 - - -
23/03:30pm - - - - - SW 30 33 16 18 - - -
23/03:00pm - - - - - SW 26 30 14 16 - - -
23/02:30pm - - - - - SW 22 24 12 13 - - -
23/02:00pm - - - - - SSW 22 24 12 13 - - -
23/01:30pm - - - - - S 22 26 12 14 - - -
23/01:00pm - - - - - S 24 28 13 15 - - -
23/12:30pm - - - - - S 22 26 12 14 - - -
23/12:00pm - - - - - SSW 22 26 12 14 - - -
23/11:30am - - - - - S 17 20 9 11 - - -
23/11:00am - - - - - S 20 24 11 13 - - -
23/10:30am - - - - - S 20 24 11 13 - - -
23/10:00am - - - - - S 17 19 9 10 - - -
23/09:30am - - - - - SSW 13 17 7 9 - - -
23/09:00am - - - - - S 17 19 9 10 - - -
23/08:30am - - - - - S 19 20 10 11 - - -
23/08:00am - - - - - S 20 24 11 13 - - -
23/07:30am - - - - - S 20 24 11 13 - - -
23/07:00am - - - - - S 24 28 13 15 - - -
23/06:30am - - - - - S 22 26 12 14 - - -
23/06:00am - - - - - S 26 30 14 16 - - -
23/05:30am - - - - - SSW 24 30 13 16 - - -
23/05:00am - - - - - SSW 20 24 11 13 - - -
23/04:30am - - - - - SW 22 26 12 14 - - -
23/04:00am - - - - - SW 20 24 11 13 - - -
23/03:30am - - - - - SW 20 24 11 13 - - -
23/03:00am - - - - - SW 19 24 10 13 - - -
23/02:30am - - - - - SSW 22 28 12 15 - - -
23/02:00am - - - - - SSW 20 26 11 14 - - -
23/01:30am - - - - - SW 19 24 10 13 - - -
23/01:00am - - - - - SW 17 22 9 12 - - -
23/12:30am - - - - - S 20 24 11 13 - - -
23/12:00am - - - - - S 22 30 12 16 - - -
 
Date/Time
EDT
Temp
°C
App
Temp
°C
Dew
Point
Rel
Hum
%
Delta-T
°C
Wind Press
QNH
hPa
Press
MSL
hPa
Rain
since 9 am
mm
Dir
 
Spd
km/h
Gust
km/h
Spd
kts
Gust
kts
22/11:30pm - - - - - S 22 28 12 15 - - -
22/11:00pm - - - - - SSW 22 26 12 14 - - -
22/10:30pm - - - - - SSW 28 35 15 19 - - -
22/10:00pm - - - - - SSW 28 32 15 17 - - -
22/09:30pm - - - - - SW 22 35 12 19 - - -
22/09:00pm - - - - - SW 28 37 15 20 - - -
22/08:30pm - - - - - WSW 26 32 14 17 - - -
22/08:15pm - - - - - WSW 32 44 17 24 - - -
22/08:00pm - - - - - N 19 26 10 14 - - -
22/07:30pm - - - - - N 20 30 11 16 - - -
22/07:00pm - - - - - N 22 35 12 19 - - -
22/06:30pm - - - - - N 20 30 11 16 - - -
22/06:00pm - - - - - N 24 35 13 19 - - -
22/05:30pm - - - - - N 20 35 11 19 - - -
22/05:00pm - - - - - N 22 30 12 16 - - -
22/04:30pm - - - - - N 17 30 9 16 - - -
22/04:00pm - - - - - N 24 30 13 16 - - -
22/03:30pm - - - - - NNE 22 30 12 16 - - -
22/03:00pm - - - - - N 20 32 11 17 - - -
22/02:30pm - - - - - N 20 32 11 17 - - -
22/02:00pm - - - - - N 20 32 11 17 - - -
22/01:30pm - - - - - N 24 32 13 17 - - -
22/01:00pm - - - - - N 24 33 13 18 - - -
22/12:30pm - - - - - N 22 37 12 20 - - -
22/12:00pm - - - - - N 30 41 16 22 - - -
22/11:30am - - - - - N 32 43 17 23 - - -
22/11:16am - - - - - N 32 50 17 27 - - -
22/11:00am - - - - - N 26 39 14 21 - - -
22/10:46am - - - - - N 28 46 15 25 - - -
22/10:30am - - - - - N 39 52 21 28 - - -
22/10:00am - - - - - N 35 56 19 30 - - -
22/09:49am - - - - - N 30 50 16 27 - - -
22/09:30am - - - - - N 30 43 16 23 - - -
22/09:00am - - - - - N 30 54 16 29 - - -
22/08:54am - - - - - N 30 48 16 26 - - -
22/08:30am - - - - - N 35 48 19 26 - - -
22/08:00am - - - - - N 30 52 16 28 - - -
22/07:45am - - - - - N 30 48 16 26 - - -
22/07:30am - - - - - N 26 37 14 20 - - -
22/07:00am - - - - - N 28 43 15 23 - - -
22/06:30am - - - - - N 30 48 16 26 - - -
22/06:00am - - - - - N 28 44 15 24 - - -
22/05:30am - - - - - N 22 32 12 17 - - -
22/05:00am - - - - - NNE 19 28 10 15 - - -
22/04:30am - - - - - NNE 13 19 7 10 - - -
22/04:00am - - - - - NNE 13 17 7 9 - - -
22/03:30am - - - - - NNE 9 15 5 8 - - -
22/03:00am - - - - - NNE 6 9 3 5 - - -
22/02:30am - - - - - NNE 9 11 5 6 - - -
22/02:00am - - - - - NNE 9 11 5 6 - - -
22/01:30am - - - - - NNE 9 11 5 6 - - -
22/01:00am - - - - - NNE 7 9 4 5 - - -
22/12:30am - - - - - NNE 7 9 4 5 - - -
22/12:00am - - - - - NNE 7 9 4 5 - - -
 
Date/Time
EDT
Temp
°C
App
Temp
°C
Dew
Point
Rel
Hum
%
Delta-T
°C
Wind Press
QNH
hPa
Press
MSL
hPa
Rain
since 9 am
mm
Dir
 
Spd
km/h
Gust
km/h
Spd
kts
Gust
kts
21/11:30pm - - - - - NE 7 11 4 6 - - -
21/11:00pm - - - - - N 4 6 2 3 - - -
21/10:30pm - - - - - NE 6 9 3 5 - - -
21/10:00pm - - - - - E 7 11 4 6 - - -
21/09:30pm - - - - - E 11 17 6 9 - - -
21/09:00pm - - - - - E 19 22 10 12 - - -
21/08:30pm - - - - - ESE 17 22 9 12 - - -
21/08:00pm - - - - - ESE 17 22 9 12 - - -
21/07:30pm - - - - - ESE 19 26 10 14 - - -

Other Formats:

Comma delimited format used in spreadsheet applications
http://www.bom.gov.au/fwo/IDV60801/IDV60801.95864.axf

JavaScript Object Notation format (JSON) in row-major order
http://www.bom.gov.au/fwo/IDV60801/IDV60801.95864.json